{"data":{"norad_id":62127,"intl_designator":"2024-222P","name":"STARLINK-32557","alt_names":[],"object_type":"PAYLOAD","status":"ACTIVE","operator":null,"country":"US","launch_date":"2024-11-27","launch_site_code":"AFETR","launch_vehicle":null,"mission":null,"orbit_class":"UNKNOWN","rcs_meters":null,"size_class":null,"mass_kg":null,"dimensions":null,"purposes":["comms"],"wikipedia_slug":null,"has_3d_model":false,"image_url":null,"decayed_at":null,"tle_current":{"epoch":"2026-09-20T23:00:11.090880Z","epoch_age_seconds":142744,"freshness":"FRESH","line1":"1 62127U 24222P   26263.95846170  .00023157  00000+0  84820-3 0  9991","line2":"2 62127  43.0021 102.8039 0001389 290.2553  69.8149 15.27586940102782","mean_motion":15.2758694,"eccentricity":0.0001389,"inclination_deg":43.0021,"raan_deg":102.8039,"arg_perigee_deg":290.2553,"mean_anomaly_deg":69.8149,"bstar":0.0008482,"rev_number":10278,"period_min":94.266320449165,"perigee_km":482.07529939939,"apogee_km":483.98133112397,"semimajor_km":6861.1653152617,"source":"CELESTRAK","updated_at":"2026-09-22T09:00:49.526294Z"}}}